KNUWKFHR

Guest
Details From KNUW - WHIDBEY ISLAND NAS
To KFHR - FRIDAY HARBOR
Flight Number -
Tags decoded
Created
Modified
Stats Distance 18 nm / 33 km
Max Altitude 0 ft / 0 m
Waypoints 2
Social Downloads 0
Likes 0
Share VATSIM

Download

Looking for another format? Having issues loading an existing format? Contact us
Advertisement - Login to hide

Notes

Requested: KNUW KFHR

Route

KNUW KFHR

ID Type Via Altitude Latitude Longitude Leg Dist Tot Dist Heading (true) Name
O KNUW APT - 0 ft / 0 m 48.35180˚ -122.65591˚ - 0 nm - WHIDBEY ISLAND NAS
O KFHR APT - 0 ft / 0 m 48.52197˚ -123.02437˚ 17 nm 17 nm 305° / 305° FRIDAY HARBOR

Altitude Profile

Advertisement - Login to hide

KNUW

Details ICAO KNUW (NUW)
Name WHIDBEY ISLAND NAS
Region United States
Timezone America/Los_Angeles (UTC-8.0)
Stats Elevation 47 ft / 14 m (AMSL)
Location 48.351803° -122.655907°
Runways 2
Magnetic Variation 15.965° E

METAR

KNUW 160925Z 11006KT 7SM BCFG FEW016 SCT026 BKN060 OVC170 06/05 A3031 RMK T00560050

Decode

TAF

TAF KNUW 1607/1707 16008KT 8000 BCFG FEW035 SCT050 SCT100 BKN250 640309 531209 532109 QNH3024INS FM161300 12007KT 9999 SCT015 SCT035 BKN050 BKN250 640409 531209 532109 QNH3026INS TEMPO 1613/1619 VRB05KT 9000 -RA BR SCT006 BKN012 OVC030 FM161900 12008KT 9999 SCT007 BKN025 OVC060 640409 531109 532009 QNH3023INS FM170200 14013KT 9999 SCT007 BKN025 OVC060 640409 531109 532009 QNH3021INS TEMPO 1702/1707 4800 RA BR BKN005 OVC025 T04/1612Z T08/1623Z FS30094

Decode

Departure Runways

ID Width Length Bearing (true) Bearing (mag) Surface Threshold Offset Overrun Length
07 200 ft / 61 m 7,977 ft / 2,432 m 86.95° 70.98° Concrete 0 ft / 0 m 1,000 ft / 305 m
13 200 ft / 61 m 7,999 ft / 2,438 m 154.71° 138.74° Concrete 0 ft / 0 m 1,000 ft / 305 m
25 200 ft / 61 m 7,977 ft / 2,432 m 266.97° 251.00° Concrete 0 ft / 0 m 1,000 ft / 305 m
31 200 ft / 61 m 7,999 ft / 2,438 m 334.72° 318.75° Concrete 0 ft / 0 m 1,000 ft / 305 m

KFHR

Details ICAO KFHR (FRD)
Name FRIDAY HARBOR
Region United States
Timezone America/Los_Angeles (UTC-8.0)
Stats Elevation 113 ft / 34 m (AMSL)
Location 48.521966° -123.024368°
Runways 1
Magnetic Variation 16.072° E

METAR

KFHR 160853Z AUTO 00000KT 3SM BR FEW003 03/03 A3027 RMK AO2 SLP250 T00280028 53010 $

Decode

TAF

Not found

Destination Runways

ID Width Length Bearing (true) Bearing (mag) Surface Threshold Offset Overrun Length
16 75 ft / 23 m 3,402 ft / 1,037 m 177.06° 160.99° Asphalt 0 ft / 0 m 0 ft / 0 m
34 75 ft / 23 m 3,402 ft / 1,037 m 357.06° 340.99° Asphalt 0 ft / 0 m 0 ft / 0 m

Popular Alternatives